User: anonymous   Login
Location: Mentone
(34.5413°N, 85.5351°W)
Time: 18:27:21
(UTC-06:00)
Language:

ATLAS 5 CENTAUR R/B - Orbit

View from above orbital plane
View from above orbital plane
View from above satellite
View from above satellite

Ground track
Ground track

The orbit data is extracted from the following two-line orbital elements,

1 31702U 07027B   15055.16032637 0.00000300  00000-0  12515-3 0    06
2 31702  63.3770 160.4069 0173000 353.4164   6.5836 14.18300088    05
Epoch (UTC): 24 February 2015 03:50:52
Eccentricity: 0.0173000
inclination: 63.3770°
perigee height: 706 km
apogee height: 956 km
right ascension of ascending node: 160.4069°
argument of perigee: 353.4164°
revolutions per day: 14.18300088
mean anomaly at epoch: 6.5836°
orbit number at epoch: 0

The dashed part of the orbit path shows where the satellite is in the earth's shadow,  

DLR